AD4WX-13 Weather Reports


Display with metric or nautical units.
time (UTC)temp
F
wind
direction
speed
MPH
gust
MPH
rain 1hr
in
rain 24hr
in
rain mn
in
humidity
%
barometer
mb
20260504180803 79 169 5.0 11.0 0.00 0.00 0.00 44 1010.4
20260504175806 79 191 3.0 15.0 0.00 0.00 0.00 45 1010.6
20260504174734 79 183 3.0 15.0 0.00 0.00 0.00 46 1010.7
20260504173738 79 181 3.0 13.0 0.00 0.00 0.00 46 1010.8
20260504172735 79 319 4.0 13.0 0.00 0.00 0.00 44 1011.0
20260504171800 79 169 4.0 13.0 0.00 0.00 0.00 43 1011.1
20260504170749 79 165 3.0 11.0 0.00 0.00 0.00 46 1011.2
20260504150705 71 120 2.0 10.0 0.00 0.00 0.00 58 1012.6
20260504140406 66 163 2.0 9.0 0.00 0.00 0.00 65 1012.7
20260504130447 61 154 1.0 6.0 0.00 0.00 0.00 72 1012.9
20260504120213 50 332 0.0 1.0 0.00 0.00 0.00 90 1012.7
20260504081547 47 154 0.0 0.0 0.00 0.00 0.00 91 1012.7
20260504080516 47 155 0.0 0.0 0.00 0.00 0.00 91 1012.7
20260504070333 47 310 0.0 0.0 0.00 0.00 0.00 90 1013.1
20260504050252 49 310 0.0 0.0 0.00 0.00 0.00 88 1013.8
20260504045221 49 310 0.0 0.0 0.00 0.00 0.00 88 1013.8
20260504044103 49 310 0.0 0.0 0.00 0.00 0.00 88 1013.8
20260504043041 49 310 0.0 0.0 0.00 0.00 0.00 88 1014.0
20260504042045 49 310 0.0 0.0 0.00 0.00 0.00 88 1014.0
20260504041015 49 310 0.0 0.0 0.00 0.00 0.00 87 1014.0
20260504035826 49 154 0.0 0.0 0.00 0.00 0.00 87 1014.1
20260504034844 49 310 0.0 0.0 0.00 0.00 0.00 87 1014.2
20260504033903 49 154 0.0 0.0 0.00 0.00 0.00 87 1014.2
20260504032923 50 154 0.0 0.0 0.00 0.00 0.00 87 1014.2
20260504031833 50 310 0.0 0.0 0.00 0.00 0.00 86 1014.3
20260504030800 50 310 0.0 0.0 0.00 0.00 0.00 85 1014.3
20260504025753 50 310 0.0 0.0 0.00 0.00 0.00 85 1014.3
20260504024801 51 310 0.0 0.0 0.00 0.00 0.00 84 1014.3
20260504023815 51 310 0.0 0.0 0.00 0.00 0.00 82 1014.3
20260504022751 52 310 0.0 0.0 0.00 0.00 0.00 82 1014.2
20260504021725 52 310 0.0 0.0 0.00 0.00 0.00 80 1014.3
20260504020611 53 310 0.0 0.0 0.00 0.00 0.00 79 1014.1
20260504015550 53 310 0.0 0.0 0.00 0.00 0.00 78 1014.2
20260504014541 54 310 0.0 0.0 0.00 0.00 0.00 77 1014.2
20260504013537 55 310 0.0 0.0 0.00 0.00 0.00 74 1014.1
20260504012418 56 310 0.0 0.0 0.00 0.00 0.00 73 1014.0
20260504011424 57 310 0.0 0.0 0.00 0.00 0.00 70 1014.1
20260504010321 58 310 0.0 0.0 0.00 0.00 0.00 67 1014.0
20260504005340 59 310 0.0 0.0 0.00 0.00 0.00 66 1013.9
20260504004329 60 310 0.0 0.0 0.00 0.00 0.00 63 1013.8
20260504003348 62 310 0.0 0.0 0.00 0.00 0.00 60 1013.8
20260504002358 63 310 0.0 0.0 0.00 0.00 0.00 57 1013.9
20260504001243 65 310 0.0 0.0 0.00 0.00 0.00 53 1014.0
20260504000226 66 310 0.0 0.0 0.00 0.00 0.00 50 1014.1
20260503235208 67 310 0.0 0.0 0.00 0.00 0.00 46 1014.2
20260503234100 68 165 0.0 0.0 0.00 0.00 0.00 45 1014.2
20260503233105 69 166 1.0 7.0 0.00 0.00 0.00 40 1014.1
20260503232123 69 177 1.0 5.0 0.00 0.00 0.00 40 1014.2
20260503231011 69 175 1.0 9.0 0.00 0.00 0.00 38 1014.2
20260503230005 70 196 2.0 9.0 0.00 0.00 0.00 38 1014.4
20260503225018 71 310 1.0 7.0 0.00 0.00 0.00 38 1014.5
20260503223952 71 310 1.0 7.0 0.00 0.00 0.00 37 1014.6
20260503222928 71 310 1.0 5.0 0.00 0.00 0.00 36 1014.7
20260503221926 72 310 1.0 5.0 0.00 0.00 0.00 34 1014.8
20260503220945 72 147 1.0 9.0 0.00 0.00 0.00 34 1014.9
20260503215937 71 138 3.0 9.0 0.00 0.00 0.00 35 1015.1
20260503214922 71 153 2.0 6.0 0.00 0.00 0.00 34 1015.3
20260503213937 71 310 3.0 9.0 0.00 0.00 0.00 33 1015.5
20260503212959 71 191 3.0 9.0 0.00 0.00 0.00 33 1015.6
20260503211932 72 215 2.0 10.0 0.00 0.00 0.00 33 1015.8
20260503210901 72 198 1.0 11.0 0.00 0.00 0.00 32 1016.1
20260503205915 72 84 2.0 11.0 0.00 0.00 0.00 33 1016.3
20260503204921 70 171 4.0 10.0 0.00 0.00 0.00 35 1016.5
20260503203849 70 310 4.0 11.0 0.00 0.00 0.00 34 1016.6
20260503202815 70 203 3.0 11.0 0.00 0.00 0.00 34 1016.7
20260503201829 71 103 3.0 11.0 0.00 0.00 0.00 35 1016.9
20260503200826 71 186 2.0 4.0 0.00 0.00 0.00 34 1017.1
20260503195853 70 43 2.0 7.0 0.00 0.00 0.00 35 1017.2
20260503194859 70 158 2.0 9.0 0.00 0.00 0.00 35 1017.3
20260503193842 69 140 4.0 9.0 0.00 0.00 0.00 36 1017.7
20260503192836 70 168 2.0 10.0 0.00 0.00 0.00 37 1017.8
20260503191849 70 175 2.0 10.0 0.00 0.00 0.00 36 1018.0
20260503190749 69 174 1.0 8.0 0.00 0.00 0.00 38 1018.2
20260503185807 69 172 2.0 12.0 0.00 0.00 0.00 37 1018.4
20260503184747 69 165 3.0 12.0 0.00 0.00 0.00 37 1018.7
20260503183810 68 171 2.0 7.0 0.00 0.00 0.00 41 1018.7
20260503182657 68 158 2.0 8.0 0.00 0.00 0.00 38 1018.9
20260503181657 67 101 3.0 8.0 0.00 0.00 0.00 40 1018.9